Regional Weather Roundup
Issued by NWS

Home | Current Version | Previous Version | Text Only | Print | Product List | Glossary Off
Versions: 1 2 3 4 5 6 7 8 9 10 11 12 13 14 15 16 17 18 19 20 21 22 23 24 25 26 27 28 29 30 31 32 33 34 35 36 37 38 39 40 41 42 43 44 45 46 47 48 49 50

000
ASUS45 KSLC 221710
RWRUT

UTAH REGIONAL WEATHER ROUNDUP
NATIONAL WEATHER SERVICE SALT LAKE CITY UT
1100 AM MDT FRI MAY 22 2015

UTZ001>011-023>025-221800-

NORTHERN UTAH

CITY           SKY/WX    TMP DP  RH WIND       PRES   REMARKS
BRIGHAM CITY   PTSUNNY   58  44  59 CALM      29.93S
HILL AFB       PTSUNNY   58  46  64 SW6       29.93S
LOGAN          SUNNY     56  46  69 CALM      29.92F
OGDEN          PTSUNNY   60  46  59 CALM      29.91F
PROVO AIRPORT  CLOUDY    55  43  62 NE5       29.94S
SALT LAKE CITY CLOUDY    60  45  57 S6        29.91S
VERNAL         CLOUDY    53  45  74 S7        29.99S
WENDOVER       MOSUNNY   59  45  58 NE7       29.92F
HEBER CITY     RAIN      45  41  87 CALM      30.01R
WEST JORDAN    SUNNY     59  45  58 SE13      29.93S

$$

UTZ012>022-026-027-221800-

SOUTHERN/CENTRAL UTAH

CITY           SKY/WX    TMP DP  RH WIND       PRES   REMARKS
BLANDING       SUNNY     60  34  37 S13       30.07F
BRYCE CANYON   MOSUNNY   53  28  38 SE12      30.01F
CEDAR CITY     CLOUDY    59  29  31 SW8       29.92F
DELTA          SUNNY     63  36  36 CALM      29.90F
HANKSVILLE     SUNNY     68  32  26 CALM      29.92S
MILFORD        MOSUNNY   65  29  25 VRB5      29.89F
MOAB/CYNLANDS  SUNNY     66  40  38 E9        29.89F
PRICE          PTSUNNY   58  40  51 NE5       29.97F
ST GEORGE      CLOUDY    68  28  22 W6        29.88F
KANAB          MOSUNNY   63  32  31 S9        29.97F

$$

REGIONAL REPORTS     COLORADO/ARIZONA

CITY           SKY/WX    TMP DP  RH WIND       PRES   REMARKS
CRAIG, CO      CLOUDY    49  41  74 SW5       30.03F
GRAND JUNCTION MOSUNNY   62  41  46 SE13      29.94F
RIFLE          CLOUDY    53  42  66 CALM      30.02F
MONTROSE       MOSUNNY   60  40  47 VRB5      30.01F
CORTEZ         SUNNY     62  31  31 S9        30.01F
PAGE, AZ       NOT AVBL
GRAND CANYON   CLOUDY    52  32  46 S13G20    30.00F
KINGMAN        PTSUNNY   64  30  27 SW16      29.90F
FLAGSTAFF      MOSUNNY   52  30  43 S9        30.03F

$$

REGIONAL REPORTS    NEVADA/IDAHO/WYOMING

CITY           SKY/WX    TMP DP  RH WIND       PRES   REMARKS
LAS VEGAS, NV  PTSUNNY   69  39  33 S7        29.83S
ELY            PTSUNNY   54  36  50 N10       29.96F
ELKO           PTSUNNY   57  42  57 CALM      29.93F
POCATELLO, ID  MOSUNNY   60  51  72 NW7       29.92F
BURLEY         PTSUNNY   60  49  66 W6        29.91F
EVANSTON, WY   PTSUNNY   48  40  73 VRB3      30.00S
ROCK SPRINGS   CLOUDY    49  41  74 SE6       29.99F
KEMMERER       CLOUDY    48  41  76 E6        30.01S

$$



USA.gov is the U.S. government's official web portal to all federal, state and local government web resources and services.